User: anonymous   Login
Location: Ithaca
(42.4410°N, 76.4970°W)
Time: 08:00:03
(UTC-04:00)
Language:

Cosmos 1271 Rocket - Orbit

View from above orbital plane
View from above orbital plane
View from above satellite
View from above satellite

Ground track
Ground track

The orbit data is extracted from the following two-line orbital elements,

1 12465U 81046B   14297.07092196  .00006507  00000-0  38862-3 0  3749
2 12465 081.2474 053.4488 0034900 308.6920 051.1185 15.10444410821244
Epoch (UTC): 24 October 2014 01:42:07
Eccentricity: 0.0034900
inclination: 81.2474°
perigee height: 511 km
apogee height: 559 km
right ascension of ascending node: 53.4488°
argument of perigee: 308.6920°
revolutions per day: 15.10444410
mean anomaly at epoch: 51.1185°
orbit number at epoch: 82124

The dashed part of the orbit path shows where the satellite is in the earth's shadow,  

DLR